Ionia, MI

8:39 AM EST on February 08, 2016 (GMT -0500)
Ionia

Weather History for KY70 - May, 2014

Change the Weather History Date:

Monday, May 19, 2014

  Actual Average (KGRR) Record (KGRR)
Temperature  
Mean Temperature 58 °F 60 °F  
Max Temperature 69 °F 71 °F 91 °F (1977)
Min Temperature 46 °F 49 °F 30 °F (2002)
Degree Days  
Heating Degree Days 8 7  
Month to date heating degree days 173  
Since 1 July heating degree days 6378  
Cooling Degree Days 0 1  
Month to date cooling degree days 15  
Year to date cooling degree days 23  
Growing Degree Days 8 (Base 50)    
Moisture  
Dew Point 38 °F    
Average Humidity 50    
Maximum Humidity 77    
Minimum Humidity 28    
Precipitation  
Precipitation 0.03 in 0.13 in 2.88 in (1938)
Month to date precipitation 2.40  
Year to date precipitation 12.00  
Snow  
Snow 0.00 in 0.00 in T in (2002)
Month to date snowfall 0.0  
Since 1 July snowfall 74.9  
Snow Depth -    
Sea Level Pressure  
Sea Level Pressure 30.19 in    
Wind  
Wind Speed 7 mph (SSW)    
Max Wind Speed 16 mph    
Max Gust Speed 23 mph    
Visibility 10 miles    
Events Rain    
T = Trace of Precipitation, MM = Missing Value Source: NWS Daily Summary

Daily Weather History Graph

Daily Weather History Graph

Search for Another Location

Airport or City:

Trip Planner

Search our weather history database for the weather conditions in past years. The results will help you decide how hot, cold, wet, or windy it might be!

Date:

Astronomy

May. 19, 2014 Rise Set
Actual Time 6:13 AM EDT 9:00 PM EDT
Civil Twilight 5:40 AM EDT 9:33 PM EDT
Nautical Twilight 4:58 AM EDT 10:15 PM EDT
Astronomical Twilight 4:10 AM EDT 11:04 PM EDT
Moon 12:45 AM EDT (5/19) 11:12 AM EDT (5/19)
Length of Visible Light 15h 53m
Length of Day
14h 47m
Waning Gibbous, 71% of the Moon is Illuminated
May 19
Waning Gibbous
May 21
Last Quarter
May 28
New
Jun 5
First Quarter
Jun 13
Full

Hourly Weather History & Observations

Time (EDT) Temp. Windchill Dew Point Humidity Pressure Visibility Wind Dir Wind Speed Gust Speed Precip Events Conditions
12:14 AM 50.7 °F - 37.4 °F 60% 30.20 in 10.0 mi SW 5.8 mph - N/A   Clear
12:34 AM 51.3 °F - 35.2 °F 54% 30.20 in 10.0 mi South 6.9 mph - N/A   Clear
12:54 AM 50.9 °F - 35.8 °F 56% 30.20 in 10.0 mi South 6.9 mph - N/A   Clear
1:14 AM 51.6 °F - 37.0 °F 58% 30.20 in 10.0 mi SSW 8.1 mph - N/A   Clear
1:34 AM 51.4 °F - 37.2 °F 58% 30.20 in 10.0 mi SW 8.1 mph - N/A   Clear
1:54 AM 51.1 °F - 37.4 °F 60% 30.21 in 10.0 mi SW 8.1 mph - N/A   Clear
2:14 AM 50.2 °F - 37.6 °F 62% 30.21 in 10.0 mi SW 5.8 mph - N/A   Clear
2:34 AM 49.3 °F - 37.8 °F 65% 30.21 in 10.0 mi SW 4.6 mph - N/A   Clear
2:54 AM 49.6 °F - 37.6 °F 63% 30.22 in 10.0 mi SSW 5.8 mph - N/A   Clear
3:14 AM 49.3 °F - 37.6 °F 64% 30.22 in 10.0 mi SSW 6.9 mph - N/A   Clear
3:34 AM 48.4 °F - 37.6 °F 66% 30.22 in 10.0 mi SSW 5.8 mph - N/A   Clear
3:54 AM 48.2 °F - 37.4 °F 66% 30.23 in 10.0 mi SSW 4.6 mph - N/A   Clear
4:14 AM 48.2 °F - 37.6 °F 67% 30.23 in 10.0 mi SSW 5.8 mph - N/A   Clear
4:34 AM 47.8 °F - 37.6 °F 68% 30.24 in 10.0 mi SSW 4.6 mph - N/A   Clear
4:54 AM 47.1 °F - 37.4 °F 69% 30.24 in 10.0 mi SW 4.6 mph - N/A   Clear
5:14 AM 47.5 °F - 37.6 °F 69% 30.24 in 10.0 mi SW 4.6 mph - N/A   Clear
5:34 AM 46.4 °F 44.3 °F 37.4 °F 71% 30.24 in 10.0 mi SW 4.6 mph - N/A   Clear
5:54 AM 46.6 °F - 37.4 °F 70% 30.25 in 10.0 mi SW 4.6 mph - N/A   Clear
6:14 AM 46.4 °F 44.3 °F 37.2 °F 70% 30.26 in 10.0 mi SSW 4.6 mph - N/A   Clear
6:34 AM 46.8 °F - 37.4 °F 70% 30.26 in 10.0 mi SW 4.6 mph - N/A   Clear
6:54 AM 46.6 °F - 37.8 °F 71% 30.26 in 10.0 mi SW 4.6 mph - N/A   Clear
7:13 AM 47.5 °F - 38.8 °F 72% 30.27 in 10.0 mi SW 5.8 mph - N/A   Clear
7:34 AM 49.1 °F - 39.0 °F 68% 30.27 in 10.0 mi SW 4.6 mph - N/A   Clear
7:54 AM 50.9 °F - 39.0 °F 64% 30.27 in 10.0 mi SW 3.5 mph - N/A   Clear
8:13 AM 52.3 °F - 39.4 °F 61% 30.28 in 10.0 mi Calm Calm - N/A   Clear
8:34 AM 54.9 °F - 39.0 °F 55% 30.28 in 10.0 mi SW 6.9 mph - N/A   Clear
9:34 AM 58.6 °F - 38.3 °F 47% 30.28 in 10.0 mi SW 6.9 mph - N/A   Clear
9:54 AM 60.3 °F - 39.0 °F 45% 30.27 in 10.0 mi WSW 12.7 mph 16.1 mph N/A   Clear
10:54 AM 62.8 °F - 37.4 °F 39% 30.25 in 10.0 mi SSW 8.1 mph - N/A   Clear
11:14 AM 63.5 °F - 36.0 °F 36% 30.26 in 10.0 mi SSW 6.9 mph - N/A   Clear
11:34 AM 65.7 °F - 39.0 °F 38% 30.26 in 10.0 mi WSW 9.2 mph - N/A   Clear
11:54 AM 64.9 °F - 35.1 °F 33% 30.25 in 10.0 mi SW 9.2 mph - N/A   Clear
12:14 PM 65.1 °F - 35.1 °F 33% 30.25 in 10.0 mi SSW 4.6 mph - N/A   Clear
12:34 PM 65.5 °F - 34.7 °F 32% 30.24 in 10.0 mi SSE 5.8 mph - N/A   Clear
12:54 PM 65.7 °F - 34.0 °F 31% 30.24 in 10.0 mi South 9.2 mph - N/A   Clear
1:14 PM 66.7 °F - 36.0 °F 32% 30.22 in 10.0 mi South 9.2 mph - N/A   Clear
1:34 PM 67.1 °F - 35.2 °F 31% 30.22 in 10.0 mi South 10.4 mph 17.3 mph N/A   Clear
2:14 PM 68.0 °F - 36.9 °F 32% 30.20 in 10.0 mi SE 10.4 mph - N/A   Clear
2:34 PM 68.4 °F - 33.8 °F 28% 30.19 in 10.0 mi South 12.7 mph 23.0 mph N/A   Clear
2:54 PM 69.3 °F - 34.5 °F 28% 30.19 in 10.0 mi SSE 11.5 mph 16.1 mph N/A   Clear
3:14 PM 68.4 °F - 36.7 °F 31% 30.17 in 10.0 mi South 12.7 mph 20.7 mph N/A   Clear
3:34 PM 69.8 °F - 34.9 °F 28% 30.17 in 10.0 mi South 6.9 mph 10.4 mph N/A   Clear
3:54 PM 69.1 °F - 34.7 °F 28% 30.17 in 10.0 mi South 9.2 mph 21.9 mph N/A   Clear
4:14 PM 69.1 °F - 34.9 °F 28% 30.17 in 10.0 mi South 10.4 mph 18.4 mph N/A   Clear
4:34 PM 69.1 °F - 34.5 °F 28% 30.16 in 10.0 mi South 16.1 mph 20.7 mph N/A   Clear
4:53 PM 69.4 °F - 34.5 °F 28% 30.15 in 10.0 mi South 15.0 mph 20.7 mph N/A   Clear
5:14 PM 69.4 °F - 34.9 °F 28% 30.14 in 10.0 mi South 15.0 mph 19.6 mph N/A   Clear
5:33 PM 68.5 °F - 36.1 °F 30% 30.13 in 10.0 mi South 12.7 mph 20.7 mph N/A   Clear
5:54 PM 68.4 °F - 34.7 °F 29% 30.12 in 10.0 mi SSE 12.7 mph - N/A   Clear
6:14 PM 68.0 °F - 34.7 °F 29% 30.11 in 10.0 mi South 9.2 mph 17.3 mph N/A   Clear
6:54 PM 67.1 °F - 36.1 °F 32% 30.10 in 10.0 mi SSE 13.8 mph 17.3 mph N/A   Clear
7:14 PM 66.4 °F - 36.3 °F 33% 30.09 in 10.0 mi South 13.8 mph - N/A   Clear
7:33 PM 65.5 °F - 36.5 °F 34% 30.09 in 10.0 mi SSE 12.7 mph - N/A   Clear
7:54 PM 64.6 °F - 38.3 °F 38% 30.09 in 10.0 mi SSE 10.4 mph - N/A   Clear
8:14 PM 64.2 °F - 39.6 °F 40% 30.10 in 10.0 mi SSE 8.1 mph - N/A   Clear
8:33 PM 62.6 °F - 42.1 °F 47% 30.10 in 10.0 mi SSE 6.9 mph - N/A   Mostly Cloudy
8:54 PM 61.0 °F - 42.6 °F 51% 30.10 in 10.0 mi SE 6.9 mph - N/A   Overcast
9:14 PM 60.8 °F - 41.2 °F 48% 30.10 in 10.0 mi SE 5.8 mph - N/A   Overcast
9:34 PM 61.2 °F - 41.0 °F 47% 30.11 in 10.0 mi SSE 3.5 mph - N/A   Overcast
9:54 PM 60.6 °F - 45.3 °F 57% 30.15 in 10.0 mi WSW 5.8 mph - N/A Rain Light Rain
10:14 PM 59.7 °F - 46.6 °F 62% 30.16 in 10.0 mi SSW 6.9 mph - N/A   Overcast
10:34 PM 59.5 °F - 42.1 °F 52% 30.15 in 10.0 mi South 13.8 mph - 0.01 in Rain Light Rain
10:54 PM 57.4 °F - 45.1 °F 64% 30.16 in 10.0 mi South 9.2 mph - 0.02 in Rain Rain
11:14 PM 55.6 °F - 46.8 °F 72% 30.15 in 10.0 mi South 5.8 mph - N/A Rain Light Rain
11:34 PM 54.0 °F - 46.9 °F 77% 30.13 in 10.0 mi SE 9.2 mph - 0.01 in Rain Rain
11:54 PM 54.0 °F - 45.1 °F 72% 30.15 in 10.0 mi East 3.5 mph - 0.01 in Rain Light Rain